DW1490 Weather Reports


Display with metric or nautical units.
time (UTC)temp
F
wind
direction
speed
MPH
gust
MPH
rain 1hr
in
rain 24hr
in
rain mn
in
humidity
%
barometer
mb
20260505214032 60 306 7.0 20.0 0.00 0.00 0.00 51 1012.1
20260505213024 62 206 5.0 15.0 0.00 0.00 0.00 45 1011.9
20260505212031 62 105 1.0 5.0 0.00 0.00 0.00 44 1012.0
20260505211024 62 266 6.0 13.0 0.00 0.00 0.00 44 1012.2
20260505210033 62 186 4.0 10.0 0.00 0.00 0.00 45 1012.1
20260505205104 61 166 2.0 8.0 0.00 0.00 0.00 46 1012.1
20260505204033 62 293 5.0 18.0 0.00 0.00 0.00 46 1012.4
20260505203023 62 324 8.0 18.0 0.00 0.00 0.00 48 1012.6
20260505202032 63 185 5.0 13.0 0.00 0.00 0.00 46 1012.5
20260505201043 63 229 3.0 8.0 0.00 0.00 0.00 47 1012.6
20260505200032 59 326 7.0 15.0 0.00 0.00 0.00 51 1012.8
20260505195024 59 273 7.0 18.0 0.00 0.00 0.00 53 1012.9
20260505194032 60 214 5.0 13.0 0.00 0.00 0.00 51 1013.0
20260505193024 59 190 7.0 18.0 0.00 0.00 0.00 52 1013.1
20260505192031 58 194 6.0 18.0 0.00 0.00 0.00 58 1013.2
20260505191044 57 194 9.0 20.0 0.00 0.00 0.00 62 1013.2
20260505190033 56 179 13.0 23.0 0.00 0.00 0.00 68 1013.2
20260505185024 57 195 13.0 23.0 0.00 0.00 0.00 69 1013.4
20260505184033 60 191 15.0 28.0 0.00 0.00 0.00 50 1013.2
20260505183023 61 214 9.0 25.0 0.00 0.00 0.00 46 1013.1
20260505182032 62 187 6.0 15.0 0.00 0.00 0.00 45 1013.0
20260505181025 62 197 10.0 20.0 0.00 0.00 0.00 42 1013.0
20260505180032 62 194 6.0 18.0 0.00 0.00 0.00 41 1012.9
20260505175105 64 177 3.0 18.0 0.00 0.00 0.00 39 1012.9
20260505174032 62 174 5.0 13.0 0.00 0.00 0.00 41 1012.9
20260505173025 63 131 1.0 5.0 0.00 0.00 0.00 39 1012.9
20260505172033 60 182 3.0 8.0 0.00 0.00 0.00 43 1013.0
20260505171024 60 305 6.0 15.0 0.00 0.00 0.00 44 1013.1
20260505170033 60 250 5.0 13.0 0.00 0.00 0.00 43 1013.4
20260505165100 58 243 2.0 8.0 0.00 0.00 0.00 45 1013.1
20260505164052 56 116 2.0 8.0 0.00 0.00 0.00 47 1013.3
20260505163023 57 35 4.0 10.0 0.00 0.00 0.00 47 1013.3
20260505162032 55 42 4.0 10.0 0.00 0.00 0.00 50 1013.4
20260505161025 54 21 6.0 13.0 0.00 0.00 0.00 53 1013.6
20260505153024 54 8 12.0 20.0 0.00 0.00 0.00 57 1014.1
20260505152033 54 351 9.0 18.0 0.00 0.00 0.00 57 1014.1
20260505151024 54 336 10.0 25.0 0.00 0.00 0.00 59 1014.1
20260505125025 58 43 2.0 5.0 0.00 0.00 0.00 43 1013.0
20260505124016 58 160 1.0 5.0 0.00 0.00 0.00 42 1013.2
20260505123041 58 160 1.0 5.0 0.00 0.00 0.00 41 1013.2
20260505122016 58 188 3.0 10.0 0.00 0.00 0.00 40 1013.2
20260505121044 58 317 1.0 5.0 0.00 0.00 0.00 39 1013.2
20260505120037 58 317 2.0 5.0 0.00 0.00 0.00 38 1013.0
20260505115024 58 162 1.0 8.0 0.00 0.00 0.00 38 1013.0
20260505114017 58 253 4.0 13.0 0.00 0.00 0.00 38 1012.8
20260505113024 58 0.0 0.0 0.00 0.00 0.00 37 1012.8
20260505112017 58 0.0 0.0 0.00 0.00 0.00 37 1012.8
20260505111024 58 53 2.0 10.0 0.00 0.00 0.00 36 1013.0
20260505102016 58 152 0.0 3.0 0.00 0.00 0.00 36 1012.9
20260505101025 59 144 0.0 3.0 0.00 0.00 0.00 34 1012.8
20260505100017 59 177 1.0 8.0 0.00 0.00 0.00 34 1012.7
20260505095024 59 0.0 0.0 0.00 0.00 0.00 35 1012.7
20260505094037 59 126 0.0 3.0 0.00 0.00 0.00 33 1012.7
20260505093024 60 7 1.0 8.0 0.00 0.00 0.00 31 1012.7
20260505092017 60 93 1.0 5.0 0.00 0.00 0.00 32 1013.0
20260505091025 60 290 4.0 10.0 0.00 0.00 0.00 31 1012.9
20260505090017 60 272 4.0 13.0 0.00 0.00 0.00 32 1013.0
20260505085025 60 280 4.0 10.0 0.00 0.00 0.00 33 1013.3
20260505084016 60 19 1.0 8.0 0.00 0.00 0.00 33 1013.4
20260505083025 61 146 1.0 5.0 0.00 0.00 0.00 33 1013.6
20260505082036 61 322 1.0 5.0 0.00 0.00 0.00 33 1013.5
20260505081041 61 229 2.0 8.0 0.00 0.00 0.00 33 1013.5
20260505080018 61 327 4.0 13.0 0.00 0.00 0.00 32 1013.6
20260505075024 62 146 1.0 5.0 0.00 0.00 0.00 32 1013.8
20260505074017 62 244 5.0 15.0 0.00 0.00 0.00 31 1013.8
20260505073024 62 332 4.0 15.0 0.00 0.00 0.00 31 1013.6
20260505072016 63 280 6.0 23.0 0.00 0.00 0.00 30 1013.5
20260505071025 63 253 5.0 18.0 0.00 0.00 0.00 30 1013.4
20260505070016 63 232 8.0 25.0 0.00 0.00 0.00 29 1013.2
20260505065025 63 202 6.0 23.0 0.00 0.00 0.00 29 1013.0
20260505064016 64 281 9.0 25.0 0.00 0.00 0.00 28 1013.1
20260505063025 64 206 3.0 10.0 0.00 0.00 0.00 27 1013.0
20260505062017 64 261 5.0 15.0 0.00 0.00 0.00 27 1013.1
20260505061105 65 197 5.0 10.0 0.00 0.00 0.00 26 1013.1
20260505060053 65 221 9.0 40.0 0.00 0.00 0.00 26 1013.0
20260505055024 65 235 5.0 15.0 0.00 0.00 0.00 26 1013.0
20260505054017 65 219 6.0 18.0 0.00 0.00 0.00 25 1012.9
20260505053024 66 168 4.0 15.0 0.00 0.00 0.00 25 1012.9
20260505052016 66 243 3.0 10.0 0.00 0.00 0.00 25 1012.8
20260505051026 66 203 3.0 10.0 0.00 0.00 0.00 25 1012.7
20260505041025 67 189 3.0 10.0 0.00 0.00 0.00 25 1012.6
20260505040017 67 179 1.0 5.0 0.00 0.00 0.00 25 1012.6
20260505035024 68 339 2.0 10.0 0.00 0.00 0.00 24 1012.7
20260505034017 68 215 4.0 13.0 0.00 0.00 0.00 24 1012.5
20260505033026 68 211 1.0 5.0 0.00 0.00 0.00 23 1012.3
20260505032017 69 214 3.0 13.0 0.00 0.00 0.00 23 1012.2
20260505031025 69 241 6.0 23.0 0.00 0.00 0.00 22 1012.0
20260505030016 69 276 6.0 18.0 0.00 0.00 0.00 22 1011.8
20260505025026 70 312 7.0 20.0 0.00 0.00 0.00 21 1011.8
20260505024036 70 270 9.0 25.0 0.00 0.00 0.00 21 1011.7
20260505023045 70 251 11.0 30.0 0.00 0.00 0.00 21 1011.6
20260505022018 71 254 10.0 28.0 0.00 0.00 0.00 20 1011.5
20260505021024 71 267 6.0 18.0 0.00 0.00 0.00 21 1011.4
20260505020018 71 272 4.0 15.0 0.00 0.00 0.00 21 1011.2
20260505015024 72 233 6.0 15.0 0.00 0.00 0.00 21 1011.2
20260505014017 72 226 7.0 20.0 0.00 0.00 0.00 20 1011.1
20260505013040 72 272 9.0 20.0 0.00 0.00 0.00 20 1010.9
20260505012017 72 312 8.0 25.0 0.00 0.00 0.00 20 1010.7
20260505011026 72 248 9.0 30.0 0.00 0.00 0.00 19 1010.8
20260505010016 73 277 9.0 30.0 0.00 0.00 0.00 19 1010.8
20260505005026 73 248 12.0 23.0 0.00 0.00 0.00 18 1010.8
20260505004016 73 269 11.0 35.0 0.00 0.00 0.00 18 1010.9
20260505003025 73 292 9.0 35.0 0.00 0.00 0.00 17 1011.0
20260505002018 73 273 9.0 23.0 0.00 0.00 0.00 17 1011.1
20260505001045 74 264 9.0 23.0 0.00 0.00 0.00 17 1011.2
20260505000017 74 242 9.0 23.0 0.00 0.00 0.00 16 1011.1
20260504235025 74 221 10.0 23.0 0.00 0.00 0.00 16 1011.1
20260504234017 74 274 11.0 28.0 0.00 0.00 0.00 15 1011.2
20260504233026 74 264 8.0 23.0 0.00 0.00 0.00 15 1011.2
20260504232017 74 256 12.0 33.0 0.00 0.00 0.00 15 1011.2
20260504231046 74 284 15.0 33.0 0.00 0.00 0.00 14 1011.1
20260504230016 75 239 10.0 28.0 0.00 0.00 0.00 14 1011.2
20260504225025 75 228 14.0 35.0 0.00 0.00 0.00 14 1011.2
20260504224018 75 265 14.0 33.0 0.00 0.00 0.00 14 1011.3
20260504223025 75 249 13.0 30.0 0.00 0.00 0.00 13 1011.6
20260504222018 76 223 10.0 35.0 0.00 0.00 0.00 12 1011.5
20260504221025 76 243 15.0 33.0 0.00 0.00 0.00 13 1011.7
20260504220018 76 193 12.0 33.0 0.00 0.00 0.00 13 1011.8
20260504215025 76 216 9.0 20.0 0.00 0.00 0.00 13 1012.0